EW7237 Weather Reports


time (UTC)temp
F
wind
direction
speed
knots
gust
knots
rain 1hr
in
rain 24hr
in
rain mn
in
humidity
%
barometer
mb
20260506013043 47 120 0.0 0.0 0.00 0.45 0.01 96 1007.1
20260506011623 47 120 0.0 0.0 0.00 0.45 0.01 95 1007.2
20260506010027 48 120 0.0 0.0 0.00 0.45 0.01 95 1007.3
20260506004607 49 120 0.0 0.0 0.00 0.45 0.01 95 1007.3
20260506003019 50 120 0.0 0.0 0.00 0.45 0.01 95 1007.2
20260506001537 49 120 0.0 0.0 0.00 0.45 0.01 95 1007.5
20260506000114 50 120 0.0 0.0 0.00 0.45 0.01 95 1007.6
20260505234506 50 120 0.0 0.0 0.01 0.45 0.01 95 1007.6
20260505233028 50 120 0.0 0.0 0.01 0.45 0.01 94 1007.7
20260505231539 50 120 0.0 0.0 0.01 0.45 0.01 94 1007.8
20260505230109 51 120 0.0 0.0 0.01 0.45 0.01 94 1007.8
20260505224506 51 120 0.0 0.0 0.00 0.44 0.00 93 1007.9
20260505223024 51 120 0.0 0.0 0.00 0.44 0.00 93 1007.9
20260505221554 51 120 0.0 0.0 0.02 0.44 0.00 93 1007.9
20260505220100 52 120 0.0 0.0 0.03 0.44 0.00 92 1008.0
20260505214522 52 120 0.0 0.0 0.09 0.44 0.44 92 1008.2
20260505213034 53 120 0.0 4.3 0.13 0.44 0.44 92 1008.4
20260505211558 53 120 0.0 0.0 0.15 0.43 0.43 92 1008.4
20260505210032 53 120 0.0 0.0 0.21 0.40 0.40 93 1008.3
20260505204519 53 120 0.0 0.0 0.24 0.35 0.35 92 1008.2
20260505203019 53 120 0.0 0.0 0.31 0.31 0.31 90 1007.9
20260505201518 53 120 0.0 0.0 0.28 0.28 0.28 89 1007.7
20260505200018 54 121 0.0 0.0 0.19 0.19 0.19 87 1007.5
20260505194517 55 121 0.0 3.5 0.09 0.09 0.09 83 1007.1
20260505193103 56 120 0.0 0.0 0.00 0.00 0.00 78 1006.6
20260505191510 57 120 0.0 0.0 0.00 0.00 0.00 74 1005.7
20260505190005 58 121 0.0 0.0 0.00 0.00 0.00 70 1005.4
20260505184531 59 121 0.0 0.0 0.00 0.00 0.00 67 1005.1
20260505183043 60 121 0.0 0.0 0.00 0.00 0.00 65 1005.0
20260505181559 61 121 0.0 0.0 0.00 0.00 0.00 62 1005.1
20260505180037 62 120 0.0 0.0 0.00 0.00 0.00 62 1005.0
20260505174600 62 121 0.0 7.0 0.00 0.00 0.00 61 1004.6
20260505173014 63 121 0.0 8.7 0.00 0.00 0.00 60 1004.4
20260505171539 64 120 0.0 6.1 0.00 0.00 0.00 63 1004.3
20260505170057 65 120 0.0 7.8 0.00 0.00 0.00 64 1004.2
20260505164523 66 121 0.0 0.9 0.00 0.00 0.00 57 1004.1
20260505163052 67 120 0.0 0.0 0.00 0.00 0.00 54 1004.1
20260505161508 67 120 0.0 0.0 0.00 0.00 0.00 53 1004.1
20260505153010 66 121 0.0 0.0 0.00 0.00 0.00 59 1004.0
20260505151538 66 120 0.0 0.0 0.00 0.00 0.00 58 1004.2
20260505150120 65 120 0.0 0.0 0.00 0.00 0.00 60 1004.2
20260505124503 71 121 0.0 0.9 0.00 0.00 0.00 37 1004.3
20260505123022 72 120 0.0 1.7 0.00 0.00 0.00 35 1004.2
20260505121610 71 120 0.0 0.9 0.00 0.00 0.00 35 1004.3
20260505120059 71 120 0.0 3.5 0.00 0.00 0.00 36 1004.2
20260505114526 71 121 0.0 4.3 0.00 0.00 0.00 35 1004.3
20260505113046 72 120 0.0 0.0 0.00 0.00 0.00 34 1004.3
20260505111600 73 120 0.0 0.9 0.00 0.00 0.00 34 1004.4
20260505101511 73 120 0.0 0.9 0.00 0.00 0.00 35 1005.0
20260505100118 71 121 0.0 0.0 0.00 0.00 0.00 36 1005.2
20260505094511 71 120 0.0 0.0 0.00 0.00 0.00 39 1005.5
20260505093026 70 120 0.0 0.0 0.00 0.00 0.00 43 1005.6
20260505091600 69 120 0.0 0.0 0.00 0.00 0.00 38 1005.9
20260505090007 68 120 0.0 0.0 0.00 0.00 0.00 46 1006.1
20260505084530 70 120 0.0 0.0 0.00 0.00 0.00 46 1006.2
20260505083050 68 120 0.0 0.0 0.00 0.00 0.00 51 1006.3
20260505081601 67 121 0.0 0.0 0.00 0.00 0.00 55 1006.4
20260505080015 64 120 0.0 0.0 0.00 0.00 0.00 58 1006.6
20260505074543 62 120 0.0 0.0 0.00 0.00 0.00 65 1006.8
20260505073103 62 120 0.0 0.0 0.00 0.00 0.00 67 1007.0
20260505071534 60 120 0.0 0.0 0.00 0.00 0.00 71 1007.2
20260505070043 59 120 0.0 0.0 0.00 0.00 0.00 73 1007.4
20260505064608 59 120 0.0 0.0 0.00 0.00 0.00 74 1007.5
20260505063028 56 121 0.0 0.0 0.00 0.00 0.00 80 1007.5
20260505061539 55 120 0.0 0.0 0.00 0.00 0.00 81 1007.5
20260505060057 54 120 0.0 0.0 0.00 0.00 0.00 82 1007.6
20260505054507 52 120 0.0 0.0 0.00 0.00 0.00 86 1007.6
20260505053026 49 120 0.0 0.0 0.00 0.00 0.00 91 1007.7
20260505051545 45 120 0.0 0.0 0.00 0.00 0.00 96 1007.7
20260505041505 42 121 0.0 0.0 0.00 0.00 0.00 94 1007.9
20260505040016 42 120 0.0 0.0 0.00 0.00 0.00 93 1007.9
20260505034536 42 121 0.0 0.0 0.00 0.00 0.00 94 1007.8
20260505033057 42 121 0.0 0.0 0.00 0.00 0.00 93 1007.8
20260505031522 43 120 0.0 0.0 0.00 0.00 0.00 93 1007.9
20260505030025 43 121 0.0 0.0 0.00 0.00 0.00 93 1008.0
20260505024603 44 120 0.0 0.0 0.00 0.00 0.00 92 1008.1
20260505023021 44 120 0.0 0.0 0.00 0.00 0.00 92 1008.2
20260505021558 44 120 0.0 0.0 0.00 0.00 0.00 92 1008.2
20260505020013 45 120 0.0 0.0 0.00 0.00 0.00 92 1008.3
20260505014537 45 120 0.0 0.0 0.00 0.00 0.00 92 1008.4